IRIDIUM 28

Satellite information

Favourite Embed

Satellite Type and Status

PAYLOADIN ORBIT

Key statistics

Satellite IRIDIUM 28 at a glance.

Uptime

10213

Days in orbit

Revolutions

≈ 14.4

Per day

Orbit

LEO

Low Earth Orbit

Inclination

86.4

Latest

Satellite identification and parameters

Extended collection of information and parameters for IRIDIUM 28.

Object identification

Identified? True

Debris? False

Object name: IRIDIUM 28

International designator: 1997-051E

Object number (NORAD): 24948

Object ID (CCSDS): 24948

Country: UNITED STATES OF AMERICA (US)

Current information (Y/N): Y

RCS size: LARGE

Orbital parameters

Period: 100.179 minutes

Inclination: 86.3938 deg

SMA: 7145.141 km

Apoapsis: 768.419 km

Periapsis: 765.594 km

RAAN: 110.046 deg

Eccentricy: 0.00019767

Argument of periapsis: 100.538 deg

Mean anomaly: 259.6041 deg

Mean motion: 14.37429374 rev/day

Mean motion (dot): 0.00000442 rev/day2

B* drag term: 0.00014134942 1/REarth

Two-line elements (TLE)

Creation date: Aug. 31, 2025, 2:26 a.m.

Reference frame: TEME

Reference center: EARTH

Epoch: Aug. 30, 2025, 9:04 p.m. UTC

TLE line 0: 0 IRIDIUM 28

TLE line 1: 1 24948U 97051E 25242.87794009 .00000442 00000-0 14135-3 0 9995

TLE line 2: 2 24948 86.3938 110.0460 0001977 100.5380 259.6041 14.37429374464576

Live tracking on map

Real-time ground track for satellite IRIDIUM 28.

In-orbit conjunctions

A list of the most updated potential collisions computed for object IRIDIUM 28.

Target Orbit TCA Probability of collision Miss distance Type
CZ-6A DEB SSO 2025-08-17 01:47:54 0.0001881574 889.0 (m) DEBRIS
FENGYUN 1C DEB SSO 2025-04-20 01:01:10 0.0002838781 910.0 (m) DEBRIS
FENGYUN 1C DEB SSO 2025-02-13 03:19:19 0.0003478477 685.0 (m) DEBRIS
COSMOS 1867 COOLANT LEO 2024-12-24 03:12:36 0.0003481297 754.0 (m) DEBRIS
FENGYUN 1C DEB SSO 2024-10-14 09:25:34 0.0006793494 69.0 (m) DEBRIS

Associated space launch

Iridium provides global mobile telecommunications services using a constellation of 66 low earth orbit satellites in a 86.4° inclined orbit. Although 77 satellites were originally envisioned for the system and spawned the name based on the 77th element in the periodic table, the system has been scaled back. Motorola's Satellite Communications Group designed and manufactured the Iridium satellites with Lockheed Martin providing the LM-700A spacecraft buses.

IRIDIUM 28 was lifted into orbit during the mission ‘Proton-K/17S40 | Iridium 27 to 33’, on board a Proton-K/17S40 space rocket.

The launch took place on Sept. 14, 1997, 1:36 a.m. from 81/23 (81L).

For more information about the launch, click the button.

Launch to space Proton-K/17S40 | Iridium 27 to 33
Proton-K/17S40 | Iridium 27 to 33

Agency: N/A

Status: Launch Successful

Launch date: Sept. 14, 1997, 1:36 a.m. UTC

Rocket: Proton-K/17S40

Launch pad: 81/23 (81L)

Location: Baikonur Cosmodrome, Republic of Kazakhstan

...

Latest news about this satellite

There are no fresh news available about this satellite. Check back as we update our databases every day.


Newsletter sign-up

Weekly statistics, charts and insights to help you stay on top of the space industry.